Regional Weather Roundup
Issued by NWS

Home | Current Version | Previous Version | Text Only | Print | Product List | Glossary On
Versions: 1 2 3 4 5 6 7 8 9 10 11 12 13 14 15 16 17 18 19 20 21 22 23 24 25 26 27 28 29 30 31 32 33 34 35 36 37 38 39 40 41 42 43 44 45 46 47 48 49 50
000
ASUS43 KMKX 181611
RWRWI

WISCONSIN REGIONAL WEATHER ROUNDUP
NATIONAL WEATHER SERVICE MILWAUKEE/SULLIVAN WI
1100 AM CDT WED OCT 18 2017

NOTE: "FAIR" INDICATES FEW OR NO CLOUDS BELOW 12,000 FEET WITH NO
SIGNIFICANT WEATHER AND/OR OBSTRUCTIONS TO VISIBILITY.

WIZ001-002-006>008-014>016-023>028-181700-
NORTHWEST WISCONSIN

CITY           SKY/WX    TMP DP  RH WIND       PRES   REMARKS
SUPERIOR ARPT  PTSUNNY   63  45  53 SW14      29.72S
ASHLAND        SUNNY     66  46  48 S13G28    29.71F
HAYWARD        SUNNY     64  45  49 S17G30    29.76F
SIREN          MOSUNNY   64  45  50 SW3       29.77R
CUMBERLAND     SUNNY     55  45  67 S13       29.79F
RICE LAKE      SUNNY     62  47  56 SE15      29.82F
CHETEK         SUNNY     61  49  65 SE9G18    29.83F
LADYSMITH      SUNNY     61  48  62 S10G17    29.85F
EAU CLAIRE     SUNNY     61  47  59 S15       29.84F
MENOMONIE      SUNNY     63  48  58 SE14      29.83F
NEW RICHMOND   CLOUDY    60  46  58 S12G18    29.79F
OSCEOLA        CLOUDY    61  48  62 S13       29.80F
$$

WIZ003>005-009-010-017-018-181700-
NORTH CENTRAL WISCONSIN

CITY           SKY/WX    TMP DP  RH WIND       PRES   REMARKS
MANITOWISH WTR SUNNY     60  47  61 S12       29.81F
ARBOR VITAE    SUNNY     60  47  64 S15       29.84F
WOODRUFF       SUNNY     60  47  64 S15       29.84F
RHINELANDER    SUNNY     61  47  59 S18G24    29.88F
EAGLE RIVER    SUNNY     63  44  50 SW9       29.84F
LAND O LAKES   SUNNY     64  45  50 SW12G20   29.84F
PHILLIPS       CLOUDY    61  47  61 S12       29.83F
TOMAHAWK       SUNNY     60  47  60 S5        29.88F
MEDFORD        SUNNY     58  46  64 S12       29.88F
MERRILL        SUNNY     60  47  60 SW10G17   29.91F
$$

WIZ029-030-035-036-043>047-181700-
CENTRAL WISCONSIN

CITY           SKY/WX    TMP DP  RH WIND       PRES   REMARKS
WAUSAU         SUNNY     60  46  59 S12       29.90F
MOSINEE        MOSUNNY   57  48  72 S14       29.93F
MARSHFIELD     SUNNY     60  46  59 S10       29.91F
STEVENS POINT  SUNNY     59  46  60 S14       29.94F
WAUPACA        SUNNY     63  47  55 S13       29.97R
WAUTOMA        SUNNY     61  47  59 S10G20      N/A
WISC RAPIDS    SUNNY     61  47  59 S8G22     29.95F
CAMP DOUGLAS   MOSUNNY   61  46  59 S12       29.94F
$$

WIZ011>013-019>022-031-037>040-048>050-181700-
NORTHEAST WISCONSIN

CITY           SKY/WX    TMP DP  RH WIND       PRES   REMARKS
ANTIGO         SUNNY     60  47  62 SW18G25   29.92F
SHAWANO        SUNNY     64  47  54 SW7       29.94S
OCONTO         SUNNY     62  47  58 S6        29.94F
STURGEON BAY   SUNNY     63  48  58 S13G25    29.96F
GREEN BAY      SUNNY     61  49  64 S16G24    29.97S
MANITOWOC      SUNNY     62  48  60 S13       30.00F
APPLETON       SUNNY     61  43  51 SW17G23   29.97S
CLINTONVILLE   SUNNY     61  45  55 SW16      29.95S
OSHKOSH        SUNNY     62  47  57 SW15G25   29.97F
$$

WIZ032>034-041-042-053>061-181700-
SOUTHWEST WISCONSIN

CITY           SKY/WX    TMP DP  RH WIND       PRES   REMARKS
LA CROSSE      SUNNY     62  48  60 S14       29.92F
SPARTA         SUNNY     61  48  62 S13       29.94S
VIROQUA        SUNNY     61  48  63 SW15      29.96F
BOSCOBEL       SUNNY     65  46  50 S8G21     29.99F
PRAIRIE DU CHI SUNNY     62  45  52 S8        29.98F
PLATTEVILLE    SUNNY     61  47  61 S14       30.03S
$$

WIZ056-057-062-063-064-067-068-181700-
SOUTH CENTRAL WISCONSIN

CITY           SKY/WX    TMP DP  RH WIND       PRES   REMARKS
REEDSBURG      SUNNY     60  47  60 S9        29.98F
BARABOO/DELLS  SUNNY     60  45  56 SW13G20   29.99S
LONE ROCK      SUNNY     63  48  58 S9        30.00F
MINERAL POINT  SUNNY     63  46  55 S14       30.02S
MADISON        SUNNY     60  45  57 S14       30.02F
MIDDLETON      SUNNY     62  45  53 S10G18    30.02F
WATERTOWN      SUNNY     62  46  55 S14G20    30.03F
MONROE         SUNNY     59  43  55 S17       30.05F
JANESVILLE     SUNNY     64  45  48 S12       30.06F
$$

WIZ051-052-058>065-066-070>072-181700-
SOUTHEAST WISCONSIN

CITY           SKY/WX    TMP DP  RH WIND       PRES   REMARKS
MILWAUKEE      SUNNY     64  43  46 S15       30.07F
WAUKESHA       SUNNY     61  43  51 S13G18    30.07F
MILWAUKEE/TIMM SUNNY     63  39  42 SW14G20   30.04F
RACINE         SUNNY     65  45  48 SW16      30.10F
BURLINGTON     SUNNY     64  46  52 S12       30.08F
KENOSHA        SUNNY     64  43  46 S12       30.10F
FOND DU LAC    SUNNY     64  43  46 S16G24    29.99F
SHEBOYGAN      SUNNY     65  48  54 S23G29    30.00F
WEST BEND      SUNNY     64  43  45 S14G20    30.02F
JUNEAU         SUNNY     60  45  56 S15G24    30.03F
$$

LSZ147-162-181700-
LAKE SUPERIOR

STATION/POSITION TIME  TEMP    WIND        PRES    WAVE
                       AIR SEA DIR/SP/G            HT/PER
                 (UTC) (F)     (DEG/KT/KT) (MB)    (FT/S)
W MID LAKE BUOY  1550   56 53              1004.6F   3/ 5
DEVILS ISLAND    1600   60     230/  7/  9 1005.8S
PORT WING        1440          210/ 10/ 21 1006.4
SAXON HARBOR     1530   65     200/ 16/ 24 1006.1F
$$

LMZ867-665-643>646-181700-
LAKE MICHIGAN

STATION/POSITION TIME  TEMP    WIND        PRES    WAVE
                       AIR SEA DIR/SP/G            HT/PER
                 (UTC) (F)     (DEG/KT/KT) (MB)    (FT/S)
S GREEN BAY BUOY 1600   59 58  200/ 14/ 17 1014.0
N MID LAKE BUOY  1550   60 59  190/ 25/ 29 1014.4F   6/ 6
NORTHPORT PIER   1540   61     160/  7/ 15 1014.2S
KEWAUNEE LAKESHO 1542   57     180/ 15/ 17 1014.5F
SHEBOYGAN LAKESH 1600   56     180/ 23/ 25 1015.8F
PORT WASHINGTON  1530   60     180/ 10/ 12 1017.9F
ATWATER BUOY     1409   56 53  190/ 12/ 16 1018.7F
MILWAUKEE LAKESH 1550   61     200/ 15/ 20   N/A
S MID LAKE BUOY  1550   59 61  210/ 19/ 23 1020.0F   5/ 6
KENOSHA   LAKESH 1600   63     200/ 10/ 18 1019.0
$$

TC  - TEMPERATURE IN CELSIUS
VSB - VISIBILITY IN STATUTE MILES
WCI - WIND CHILL INDEX
HX  - HEAT INDEX





USA.gov is the U.S. government's official web portal to all federal, state and local government web resources and services.